CXA9527 ZPLJ-ZPLJ

Flight info

Callsign CXA9527
Flight time 0h 16m
Altitude 29100
Route RV/20
Aircraft A320/M-SDE2E3FGHIJ1RWXY/M

Departure

Time 2026-04-15 13:52
Airport Lijiang Sanyi International Airport (ZPLJ)

Arrival

Time 2026-04-15 14:09
Airport Lijiang Sanyi International Airport (ZPLJ)
Time Latitude Longitude Altitude Speed Heading
2026-04-15 13:52 26.40235 100.32063 19910 ft 376 kts 105°
2026-04-15 13:52 26.40056 100.34953 19901 ft 380 kts 83°
2026-04-15 13:52 26.40794 100.37800 19892 ft 378 kts 60°
2026-04-15 13:53 26.42176 100.40198 19902 ft 361 kts 50°
2026-04-15 13:53 26.43657 100.42381 19890 ft 344 kts 49°
2026-04-15 13:53 26.45080 100.44434 19875 ft 328 kts 48°
2026-04-15 13:53 26.46461 100.46414 19876 ft 319 kts 45°
2026-04-15 13:54 26.48109 100.47966 19879 ft 309 kts 24°
2026-04-15 13:54 26.50009 100.49085 19797 ft 307 kts 19°
2026-04-15 13:54 26.51940 100.50121 19481 ft 305 kts 18°
2026-04-15 13:54 26.53836 100.51123 19181 ft 302 kts 18°
2026-04-15 13:55 26.55726 100.52113 18875 ft 300 kts 18°
2026-04-15 13:55 26.57627 100.53110 18566 ft 299 kts 18°
2026-04-15 13:55 26.59514 100.54049 18263 ft 295 kts 11°
2026-04-15 13:55 26.61479 100.54388 17958 ft 281 kts 353°
2026-04-15 13:56 26.63445 100.54351 17418 ft 285 kts 349°
2026-04-15 13:56 26.65418 100.54231 16770 ft 284 kts 348°
2026-04-15 13:56 26.67384 100.54083 16168 ft 280 kts 348°
2026-04-15 13:56 26.69289 100.53916 15575 ft 276 kts 348°
2026-04-15 13:57 26.71195 100.53736 14986 ft 272 kts 348°
2026-04-15 13:57 26.73061 100.53554 14498 ft 264 kts 348°
2026-04-15 13:57 26.74856 100.53380 14155 ft 252 kts 348°
2026-04-15 13:57 26.76516 100.53225 14057 ft 230 kts 348°
2026-04-15 13:58 26.78095 100.53073 14125 ft 225 kts 348°
2026-04-15 13:58 26.79659 100.52923 14121 ft 225 kts 347°
2026-04-15 13:58 26.81229 100.52787 14081 ft 224 kts 348°
2026-04-15 13:58 26.82780 100.52651 14067 ft 224 kts 348°
2026-04-15 13:59 26.84350 100.52522 14058 ft 225 kts 348°
2026-04-15 13:59 26.85911 100.52395 14055 ft 225 kts 349°
2026-04-15 13:59 26.87471 100.52260 14053 ft 224 kts 349°
2026-04-15 13:59 26.89035 100.52119 14051 ft 223 kts 348°
2026-04-15 14:00 26.90582 100.51977 14051 ft 223 kts 347°
2026-04-15 14:00 26.92018 100.51498 14039 ft 212 kts 321°
2026-04-15 14:00 26.92940 100.50279 14061 ft 203 kts 294°
2026-04-15 14:00 26.93509 100.48828 14068 ft 202 kts 289°
2026-04-15 14:01 26.94538 100.45902 14062 ft 202 kts 288°
2026-04-15 14:01 26.95048 100.44444 14057 ft 202 kts 288°
2026-04-15 14:01 26.95562 100.42973 14058 ft 203 kts 289°
2026-04-15 14:02 26.96070 100.41499 14063 ft 203 kts 288°
2026-04-15 14:02 26.96580 100.40015 14058 ft 204 kts 288°
2026-04-15 14:02 26.96804 100.38463 14051 ft 204 kts 263°
2026-04-15 14:02 26.96192 100.37037 14070 ft 207 kts 234°
2026-04-15 14:03 26.95210 100.35845 14078 ft 209 kts 229°
2026-04-15 14:03 26.94175 100.34713 14066 ft 208 kts 226°
2026-04-15 14:03 26.93045 100.33697 14063 ft 210 kts 220°
2026-04-15 14:03 26.91764 100.32865 14056 ft 214 kts 210°
2026-04-15 14:04 26.90361 100.32236 13851 ft 217 kts 205°
2026-04-15 14:04 26.88951 100.31722 13608 ft 210 kts 202°
2026-04-15 14:04 26.87561 100.31249 13371 ft 203 kts 202°
2026-04-15 14:04 26.86229 100.30800 13141 ft 197 kts 201°
2026-04-15 14:05 26.84932 100.30360 12800 ft 191 kts 202°
2026-04-15 14:05 26.83697 100.29941 12329 ft 184 kts 201°
2026-04-15 14:05 26.82495 100.29529 11850 ft 180 kts 202°
2026-04-15 14:05 26.81298 100.29118 11368 ft 177 kts 201°
2026-04-15 14:06 26.80138 100.28721 10894 ft 176 kts 201°
2026-04-15 14:06 26.78968 100.28320 10316 ft 181 kts 200°
2026-04-15 14:06 26.77743 100.27899 9640 ft 188 kts 200°
2026-04-15 14:06 26.76500 100.27476 9149 ft 184 kts 199°
2026-04-15 14:07 26.75326 100.27078 8836 ft 172 kts 200°
2026-04-15 14:07 26.74227 100.26703 8580 ft 158 kts 199°
2026-04-15 14:07 26.73208 100.26356 8350 ft 146 kts 199°
2026-04-15 14:07 26.72250 100.26028 8133 ft 143 kts 199°
2026-04-15 14:08 26.71295 100.25710 7921 ft 144 kts 199°
2026-04-15 14:08 26.70337 100.25401 7688 ft 142 kts 201°
2026-04-15 14:08 26.69390 100.25054 7491 ft 142 kts 199°
2026-04-15 14:08 26.68441 100.24729 7399 ft 134 kts 199°
2026-04-15 14:09 26.67816 100.24516 7400 ft 49 kts 196°
2026-04-15 14:09 26.67577 100.24432 7401 ft 28 kts 198°
2026-04-15 14:09 26.67418 100.24379 7401 ft 19 kts 194°
2026-04-15 14:09 26.67296 100.24338 7401 ft 15 kts 199°
2026-04-15 14:10 26.67208 100.24352 7401 ft 13 kts 127°
2026-04-15 14:10 26.67181 100.24424 7401 ft 3 kts 104°
2026-04-15 14:10 26.67175 100.24452 7401 ft 4 kts 104°
2026-04-15 14:10 26.67165 100.24493 7401 ft 6 kts 105°
2026-04-15 14:11 26.67151 100.24543 7401 ft 7 kts 110°
2026-04-15 14:11 26.67142 100.24574 7401 ft 4 kts 105°
2026-04-15 14:11 26.67141 100.24578 7401 ft 0 kts 105°